Change the Weather History Date:

Monday, March 4, 2013

  Actual Average Record
Temperature  
Mean Temperature 22 °F -  
Max Temperature 30 °F 47 °F 55 °F (2006)
Min Temperature 15 °F 11 °F -17 °F (2015)
Degree Days  
Heating Degree Days 42    
Moisture  
Dew Point 11 °F    
Average Humidity 59    
Maximum Humidity 88    
Minimum Humidity 36    
Precipitation  
Precipitation 0.00 in - - ()
Sea Level Pressure  
Sea Level Pressure 30.10 in    
Wind  
Wind Speed 5 mph (ESE)    
Max Wind Speed 10 mph    
Max Gust Speed 18 mph    
Visibility 8 miles    
Events Snow    
Averages and records for this station are not official NWS values.
T = Trace of Precipitation, MM = Missing Value Source: NWS Daily Summary

Daily Weather History Graph

Daily Weather History Graph

Search for Another Location

Airport or City:

Trip Planner

Search our weather history database for the weather conditions in past years. The results will help you decide how hot, cold, wet, or windy it might be!

Date:

Astronomy

Mar. 04, 2013 Rise Set
Actual Time 6:38 AM CST 5:56 PM CST
Civil Twilight 6:08 AM CST 6:26 PM CST
Nautical Twilight 5:34 AM CST 7:01 PM CST
Astronomical Twilight 4:59 AM CST 7:36 PM CST
Moon 1:02 AM CST (3/4) 10:24 AM CST (3/4)
Length of Visible Light 12h 17m
Length of Day
11h 18m
Waning Gibbous, 52% of the Moon is Illuminated
Mar 4
Waning Gibbous
Mar 4
Last Quarter
Mar 11
New
Mar 19
First Quarter
Mar 27
Full

Hourly Weather History & Observations

Time (CST) Temp. Windchill Dew Point Humidity Pressure Visibility Wind Dir Wind Speed Gust Speed Precip Events Conditions
12:53 AM 15.1 °F 9.4 °F 8.1 °F 74% 30.11 in 10.0 mi Variable 3.5 mph - N/A   Clear
1:53 AM 17.1 °F 11.7 °F 7.0 °F 65% 30.12 in 10.0 mi ENE 3.5 mph - N/A   Clear
2:53 AM 18.0 °F 12.7 °F 5.0 °F 57% 30.11 in 10.0 mi East 3.5 mph - N/A   Overcast
3:53 AM 17.1 °F - 3.9 °F 56% 30.11 in 10.0 mi Calm Calm - N/A   Scattered Clouds
4:53 AM 16.0 °F 6.3 °F 3.9 °F 59% 30.11 in 10.0 mi East 6.9 mph - N/A   Clear
5:53 AM 16.0 °F 8.8 °F 3.0 °F 57% 30.11 in 10.0 mi ENE 4.6 mph - N/A   Clear
6:53 AM 17.1 °F 7.6 °F 1.9 °F 52% 30.12 in 10.0 mi ENE 6.9 mph - N/A   Overcast
7:53 AM 18.0 °F 11.1 °F 3.0 °F 52% 30.12 in 10.0 mi ENE 4.6 mph - N/A   Overcast
8:53 AM 21.0 °F 13.4 °F 3.9 °F 48% 30.12 in 10.0 mi East 5.8 mph - N/A   Mostly Cloudy
9:53 AM 23.0 °F 15.8 °F 6.1 °F 48% 30.12 in 10.0 mi ESE 5.8 mph - N/A   Overcast
10:53 AM 25.0 °F 15.5 °F 6.1 °F 45% 30.12 in 10.0 mi East 9.2 mph - N/A   Mostly Cloudy
11:53 AM 28.0 °F 20.0 °F 7.0 °F 41% 30.11 in 10.0 mi ESE 8.1 mph - N/A   Overcast
12:53 PM 28.9 °F 22.8 °F 7.0 °F 40% 30.09 in 10.0 mi Variable 5.8 mph - N/A   Overcast
1:53 PM 28.9 °F 22.8 °F 5.0 °F 36% 30.07 in 10.0 mi ESE 5.8 mph - N/A   Overcast
2:53 PM 30.0 °F 22.4 °F 7.0 °F 38% 30.07 in 10.0 mi SE 8.1 mph - N/A   Overcast
3:53 PM 30.0 °F 21.7 °F 10.9 °F 45% 30.07 in 10.0 mi ESE 9.2 mph - N/A   Overcast
4:53 PM 28.9 °F 20.4 °F 15.1 °F 56% 30.08 in 10.0 mi ESE 9.2 mph 16.1 mph N/A   Overcast
5:53 PM 30.0 °F 24.1 °F 12.9 °F 49% 30.09 in 10.0 mi East 5.8 mph - N/A   Overcast
6:53 PM 30.0 °F 21.7 °F 12.0 °F 47% 30.09 in 10.0 mi ESE 9.2 mph 16.1 mph N/A   Overcast
7:53 PM 28.9 °F 25.2 °F 15.1 °F 56% 30.09 in 10.0 mi SE 3.5 mph - N/A   Overcast
8:53 PM 28.9 °F - 15.1 °F 56% 30.08 in 10.0 mi Calm Calm - N/A   Overcast
9:53 PM 28.9 °F 21.1 °F 16.0 °F 58% 30.10 in 6.0 mi SE 8.1 mph - 0.00 in Snow Light Snow
10:30 PM 28.4 °F 19.1 °F 17.6 °F 64% 30.07 in 1.8 mi ESE 10.4 mph 18.4 mph 0.00 in Snow Light Snow
10:43 PM 28.4 °F 21.2 °F 17.6 °F 64% 30.07 in 3.0 mi ESE 6.9 mph - 0.00 in Snow Light Snow
10:53 PM 27.0 °F 20.5 °F 18.0 °F 69% 30.13 in 4.0 mi East 5.8 mph - 0.00 in Snow Light Snow
11:05 PM 26.6 °F 22.6 °F 17.6 °F 69% 30.07 in 1.8 mi Variable 3.5 mph - 0.00 in Snow Light Snow
11:12 PM 26.6 °F 18.2 °F 19.4 °F 74% 30.07 in 1.0 mi SE 8.1 mph - 0.00 in Snow Light Snow
11:29 PM 24.8 °F 19.1 °F 21.2 °F 86% 30.07 in 1.8 mi South 4.6 mph - 0.00 in Snow Light Snow
11:38 PM 24.8 °F - 21.2 °F 86% 30.07 in 2.0 mi Calm Calm - 0.00 in Snow Light Snow
11:53 PM 25.0 °F - 21.9 °F 88% 30.12 in 2.5 mi Calm Calm - 0.00 in Snow Light Snow
11:59 PM 24.8 °F - 21.2 °F 86% 30.07 in 1.0 mi Calm Calm - 0.00 in Snow Light Snow